Weather Roundup
Issued by NWS Chicago, IL

Home | Current Version | Previous Version | Graphics & Text | Print | Product List | Glossary On
Versions: 1 2 3 4 5 6 7 8 9 10 11 12 13 14 15 16 17 18 19 20 21 22 23 24 25 26 27 28 29 30 31 32 33 34 35 36 37 38 39 40 41 42 43 44 45 46 47 48 49 50
000
NZUS59 KLOT 250703
HRRLOT

CHICAGO AREA WEATHER ROUNDUP
NATIONAL WEATHER SERVICE CHICAGO/ROMEOVILLE IL
200 AM CDT SUN SEP 25 2016

NOTE: "FAIR" INDICATES FEW OR NO CLOUDS BELOW 12,000 FEET WITH NO
SIGNIFICANT WEATHER AND/OR OBSTRUCTIONS TO VISIBILITY.

* THESE STATIONS ARE NOT UNDER NWS QUALITY CONTROL. THEY ALSO MAY NOT
  REPORT WEATHER SUCH AS PRECIPITATION OR FOG.

ILZ005-006-012>014-019>023-250800-
NORTHEAST ILLINOIS

CITY           SKY/WX    TMP DP  RH WIND       PRES   REMARKS
OHARE          CLEAR     66  62  87 SE7       30.12S
MIDWAY         CLEAR     69  61  75 SE8       30.12S
AURORA         PTCLDY    67  64  90 SE5       30.11F
LANSING*       CLEAR     66  62  87 SE7       30.13S
WAUKEGAN       CLEAR     67  63  87 SE6       30.12S
DUPAGE AIRPORT CLEAR     67  62  84 E7        30.11S
WHEELING       CLEAR     66  62  87 SE5       30.13S
KANKAKEE*      PTCLDY    67  64  91 E3        30.13S
MORRIS*        CLEAR     67  65  91 SE5       30.10S
NORTHERLY ISL    N/A     68  62  81 SE9         N/A
$$

WIZ051-052-058>065-066-070>072-250800-
SOUTHEAST WISCONSIN

CITY           SKY/WX    TMP DP  RH WIND       PRES   REMARKS
MILWAUKEE      CLEAR     66  61  84 SE7       30.13S
KENOSHA*       CLEAR     67  62  84 SE8       30.13S
RACINE*        CLEAR     67  61  81 SE7       30.14S
BURLINGTON     CLEAR     56  56  99 CALM      30.12F FOG
WAUKESHA       CLEAR     61  59  94 E6        30.14F
WEST BEND      CLEAR     57  55  94 CALM      30.14F
$$

INZ001>003-010>013-019-020-250800-
NORTHWEST INDIANA

CITY           SKY/WX    TMP DP  RH WIND       PRES   REMARKS
GARY*          CLEAR     68  62  80 SE9       30.14R
MICHIGAN CITY* NOT AVBL
RENSSELAER*    NOT AVBL
VALPARAISO     CLEAR     63  59  87 E7        30.15S
$$

LMZ740>746-250800-
SOUTHERN LAKE MICHIGAN

STATION/POSITION TIME  SKY/WX   TEMP WIND        PRES    VSBY
                                AIR  DIR/SP/G
                 (UTC)          (F)  (DEG/KT/KT) (MB)    (MI)
HARRISON CRIB    0600            71  140/ 18/ 19   N/A
BURNHAM HARBOR   0700            68  150/  6/ 10   N/A
CALUMET HARBOR   0600            69  130/  9/ 12 1019.6F
BURNS HARBOR     0613            68  140/  8/ 18 1020.7F
MICHIGAN CITY    0600            66  110/ 10/ 11   N/A
$$

ABBREVIATIONS USED IN REMARKS
   TC - TEMPERATURE IN CELSIUS
  WCI - WIND CHILL INDEX
   HX - HEAT INDEX
  VSB - VISIBILITY
$$




USA.gov is the U.S. government's official web portal to all federal, state and local government web resources and services.